Orbital elements of INSAT-3DR
| Launched | 7 September 2016 |
| Flight ended | – |
| Launch site | Satish Dhawan Space Centre, India (Formerly Sriharikota Launching Range) |
| Owner | India |
| NORAD ID | 41752 |
| Date fetched |
Epoch osculation |
Inc. [°] |
Ecc. | RA asc node [hr] |
Arg Peri. [°] |
Mean anom [°] |
Mean motion [rev/day] |
Abs. mag |
| Date fetched |
Epoch osculation |
Inc. [°] |
Ecc. | RA asc node [hr] |
Arg Peri. [°] |
Mean anom [°] |
Mean motion [rev/day] |
Abs. mag |
| 2026 May 07 17:58 | 2026 May 07 03:10:46 | 0.1394 | 0.00110 | 5.8221 | 193.6711 | 65.6877 | 1.00273 | – |
| 2026 May 06 17:57 | 2026 May 06 13:40:46 | 0.1381 | 0.00110 | 5.8213 | 193.7676 | 65.6877 | 1.00273 | – |
| 2026 May 05 17:57 | 2026 May 05 11:49:23 | 0.1356 | 0.00110 | 5.8164 | 193.9432 | 65.6877 | 1.00273 | – |
| 2026 May 04 17:57 | 2026 May 04 12:30:47 | 0.1334 | 0.00111 | 5.8114 | 194.1754 | 65.6877 | 1.00273 | – |
| 2026 May 03 17:57 | 2026 May 03 03:21:09 | 0.1302 | 0.00111 | 5.8007 | 194.3589 | 65.6877 | 1.00273 | – |
| 2026 May 02 17:57 | 2026 May 02 10:14:24 | 0.1286 | 0.00112 | 5.7923 | 194.5833 | 65.6877 | 1.00273 | – |
| 2026 May 01 17:56 | 2026 May 01 11:59:40 | 0.1265 | 0.00112 | 5.7848 | 194.7423 | 65.6877 | 1.00273 | – |
| 2026 Apr 30 17:56 | 2026 Apr 30 12:02:12 | 0.1242 | 0.00113 | 5.7756 | 194.9148 | 65.6877 | 1.00273 | – |
| 2026 Apr 29 17:57 | 2026 Apr 29 12:04:49 | 0.1218 | 0.00114 | 5.7672 | 195.0215 | 65.6877 | 1.00273 | – |
| 2026 Apr 28 17:56 | 2026 Apr 28 12:07:22 | 0.1193 | 0.00114 | 5.7596 | 195.0677 | 65.6877 | 1.00273 | – |
| 2026 Apr 27 17:58 | 2026 Apr 27 02:50:38 | 0.1158 | 0.00116 | 5.7509 | 195.0762 | 65.6877 | 1.00273 | – |
| 2026 Apr 26 17:58 | 2026 Apr 26 04:37:38 | 0.1134 | 0.00116 | 5.7456 | 195.1321 | 65.6877 | 1.00273 | – |
| 2026 Apr 25 17:58 | 2026 Apr 25 12:15:00 | 0.1116 | 0.00117 | 5.7441 | 195.2114 | 65.6877 | 1.00273 | – |
| 2026 Apr 24 17:59 | 2026 Apr 24 03:22:38 | 0.1079 | 0.00118 | 5.7344 | 195.2646 | 65.6877 | 1.00273 | – |
| 2026 Apr 23 17:57 | 2026 Apr 23 04:37:38 | 0.1052 | 0.00119 | 5.7262 | 195.3266 | 65.6877 | 1.00273 | – |
| 2026 Apr 22 17:57 | 2026 Apr 22 04:04:38 | 0.1025 | 0.00119 | 5.7146 | 195.3715 | 65.6877 | 1.00273 | – |
| 2026 Apr 21 17:57 | 2026 Apr 21 08:59:56 | 0.1005 | 0.00120 | 5.7038 | 195.4877 | 65.6877 | 1.00273 | – |
| 2026 Apr 20 17:57 | 2026 Apr 20 12:27:53 | 0.0982 | 0.00120 | 5.6952 | 195.5493 | 65.6877 | 1.00273 | – |
| 2026 Apr 19 17:58 | 2026 Apr 19 09:05:02 | 0.0953 | 0.00119 | 5.6822 | 195.6809 | 65.6877 | 1.00273 | – |
| 2026 Apr 18 17:56 | 2026 Apr 18 02:16:59 | 0.0919 | 0.00119 | 5.6704 | 195.9270 | 65.6877 | 1.00273 | – |
| 2026 Apr 16 17:57 | 2026 Apr 16 01:59:38 | 0.0868 | 0.00119 | 5.6631 | 196.3463 | 65.6877 | 1.00273 | – |
| 2026 Apr 14 17:57 | 2026 Apr 14 11:18:38 | 0.0826 | 0.00118 | 5.6655 | 196.4243 | 65.6877 | 1.00273 | – |
| 2026 Apr 13 17:57 | 2026 Apr 13 04:40:38 | 0.0794 | 0.00118 | 5.6783 | 196.3771 | 65.6877 | 1.00273 | – |
| 2026 Apr 12 17:57 | 2026 Apr 11 21:24:16 | 0.0761 | 0.00118 | 5.6917 | 196.3817 | 65.6877 | 1.00273 | – |
| 2026 Apr 11 17:57 | 2026 Apr 11 11:08:17 | 0.0751 | 0.00117 | 5.6936 | 196.4225 | 65.6877 | 1.00273 | – |
| 2026 Apr 10 17:58 | 2026 Apr 09 20:20:38 | 0.0713 | 0.00118 | 5.6978 | 196.6561 | 65.6877 | 1.00273 | – |